| time (UTC) | temp F | wind direction | speed MPH | gust MPH | rain 1hr in | rain 24hr in | rain mn in | humidity % | barometer mb |
| 20260901223517 | 61 | 209 | 0.0 | 2.0 | 0.00 | 0.06 | 0.06 | 89 | 1020.6 |
| 20260901223017 | 61 | 209 | 1.0 | 2.0 | 0.00 | 0.06 | 0.06 | 89 | 1020.6 |
| 20260901222517 | 61 | 206 | 1.0 | 2.0 | 0.00 | 0.06 | 0.06 | 89 | 1020.6 |
| 20260901222017 | 61 | 199 | 1.0 | 2.0 | 0.00 | 0.06 | 0.06 | 89 | 1020.5 |
| 20260901221517 | 61 | 199 | 1.0 | 2.0 | 0.00 | 0.06 | 0.06 | 89 | 1020.6 |
| 20260901221017 | 61 | 211 | 1.0 | 2.0 | 0.00 | 0.06 | 0.06 | 89 | 1020.7 |
| 20260901215017 | 61 | 221 | 1.0 | 3.0 | 0.00 | 0.06 | 0.06 | 89 | 1020.8 |
| 20260901214517 | 61 | 226 | 1.0 | 3.0 | 0.00 | 0.06 | 0.06 | 89 | 1020.8 |
| 20260901213018 | 61 | 207 | 0.0 | 2.0 | 0.00 | 0.06 | 0.06 | 90 | 1020.7 |
| 20260901212517 | 62 | 207 | 1.0 | 2.0 | 0.00 | 0.06 | 0.06 | 90 | 1020.8 |
| 20260901211017 | 62 | 201 | 1.0 | 3.0 | 0.00 | 0.06 | 0.06 | 90 | 1020.9 |
| 20260901210517 | 62 | 198 | 1.0 | 3.0 | 0.00 | 0.06 | 0.06 | 90 | 1020.9 |
| 20260901210017 | 62 | 216 | 1.0 | 2.0 | 0.00 | 0.06 | 0.06 | 90 | 1021.0 |
| 20260901205517 | 62 | 216 | 1.0 | 2.0 | 0.00 | 0.06 | 0.06 | 90 | 1020.9 |
| 20260901203017 | 62 | 236 | 1.0 | 3.0 | 0.00 | 0.06 | 0.06 | 91 | 1020.8 |
| 20260901202517 | 62 | 286 | 1.0 | 2.0 | 0.00 | 0.06 | 0.06 | 91 | 1020.7 |
| 20260901201517 | 62 | 286 | 0.0 | 1.0 | 0.00 | 0.06 | 0.06 | 92 | 1020.8 |
| 20260901200517 | 62 | 286 | 0.0 | 0.0 | 0.00 | 0.06 | 0.06 | 91 | 1020.8 |
| 20260901200018 | 62 | 286 | 0.0 | 0.0 | 0.00 | 0.06 | 0.06 | 91 | 1020.8 |
| 20260901195517 | 62 | 286 | 0.0 | 0.0 | 0.00 | 0.06 | 0.06 | 91 | 1020.8 |
| 20260901194517 | 62 | 286 | 0.0 | 1.0 | 0.00 | 0.06 | 0.06 | 90 | 1020.8 |
| 20260901194017 | 62 | 286 | 0.0 | 1.0 | 0.00 | 0.06 | 0.06 | 90 | 1020.8 |
| 20260901193517 | 62 | 286 | 0.0 | 0.0 | 0.00 | 0.06 | 0.06 | 90 | 1020.8 |
| 20260901192517 | 62 | 286 | 0.0 | 0.0 | 0.00 | 0.06 | 0.06 | 90 | 1020.7 |
| 20260901192017 | 63 | 286 | 0.0 | 0.0 | 0.00 | 0.06 | 0.06 | 89 | 1020.6 |
| 20260901191017 | 63 | 286 | 0.0 | 2.0 | 0.01 | 0.06 | 0.06 | 89 | 1020.6 |
| 20260901190518 | 63 | 286 | 1.0 | 2.0 | 0.04 | 0.06 | 0.06 | 89 | 1020.6 |
| 20260901190018 | 63 | 286 | 0.0 | 2.0 | 0.06 | 0.06 | 0.06 | 88 | 1020.5 |
| 20260901185517 | 63 | 286 | 0.0 | 2.0 | 0.06 | 0.06 | 0.06 | 88 | 1020.5 |
| 20260901184010 | 63 | 288 | 0.0 | 1.0 | 0.06 | 0.06 | 0.06 | 87 | 1020.4 |
| 20260901183511 | 63 | 290 | 0.0 | 3.0 | 0.06 | 0.06 | 0.06 | 86 | 1020.5 |
| 20260901182011 | 64 | 326 | 3.0 | 5.0 | 0.06 | 0.06 | 0.06 | 84 | 1020.5 |
| 20260901181511 | 65 | 341 | 2.0 | 7.0 | 0.06 | 0.06 | 0.06 | 83 | 1020.5 |
| 20260901181011 | 65 | 332 | 4.0 | 8.0 | 0.06 | 0.06 | 0.06 | 82 | 1020.6 |
| 20260901174511 | 67 | 269 | 3.0 | 9.0 | 0.00 | 0.00 | 0.00 | 73 | 1020.5 |
| 20260901174012 | 67 | 213 | 5.0 | 10.0 | 0.00 | 0.00 | 0.00 | 74 | 1020.4 |
| 20260901173511 | 67 | 207 | 4.0 | 10.0 | 0.00 | 0.00 | 0.00 | 74 | 1020.3 |
| 20260901172511 | 67 | 194 | 4.0 | 12.0 | 0.00 | 0.00 | 0.00 | 74 | 1020.3 |
| 20260901171511 | 67 | 192 | 6.0 | 12.0 | 0.00 | 0.00 | 0.00 | 74 | 1020.3 |
| 20260901170511 | 67 | 202 | 4.0 | 10.0 | 0.00 | 0.00 | 0.00 | 73 | 1020.1 |
| 20260901170011 | 67 | 204 | 5.0 | 9.0 | 0.00 | 0.00 | 0.00 | 73 | 1019.9 |
| 20260901165011 | 67 | 204 | 7.0 | 12.0 | 0.00 | 0.00 | 0.00 | 73 | 1020.2 |
| 20260901164510 | 67 | 199 | 5.0 | 10.0 | 0.00 | 0.00 | 0.00 | 74 | 1020.2 |
| 20260901164011 | 67 | 189 | 4.0 | 12.0 | 0.00 | 0.00 | 0.00 | 74 | 1020.2 |
| 20260901163512 | 67 | 195 | 6.0 | 12.0 | 0.00 | 0.00 | 0.00 | 74 | 1020.2 |
| 20260901162511 | 68 | 200 | 6.0 | 14.0 | 0.00 | 0.00 | 0.00 | 72 | 1020.1 |
| 20260901161011 | 69 | 201 | 7.0 | 17.0 | 0.00 | 0.00 | 0.00 | 69 | 1020.4 |
| 20260901160011 | 69 | 191 | 7.0 | 17.0 | 0.00 | 0.00 | 0.00 | 66 | 1020.4 |
| 20260901155011 | 69 | 191 | 6.0 | 13.0 | 0.00 | 0.00 | 0.00 | 64 | 1020.4 |
| 20260901154510 | 70 | 192 | 5.0 | 13.0 | 0.00 | 0.00 | 0.00 | 66 | 1020.4 |
| 20260901153511 | 70 | 195 | 6.0 | 13.0 | 0.00 | 0.00 | 0.00 | 66 | 1020.2 |
| 20260901151511 | 69 | 207 | 7.0 | 13.0 | 0.00 | 0.00 | 0.00 | 67 | 1020.3 |
| 20260901151011 | 69 | 210 | 7.0 | 13.0 | 0.00 | 0.00 | 0.00 | 66 | 1020.5 |
| 20260901150511 | 69 | 178 | 6.0 | 13.0 | 0.00 | 0.00 | 0.00 | 67 | 1020.4 |
| 20260901150012 | 69 | 189 | 8.0 | 13.0 | 0.00 | 0.00 | 0.00 | 68 | 1020.5 |
| 20260901145011 | 68 | 204 | 7.0 | 13.0 | 0.00 | 0.00 | 0.00 | 69 | 1020.6 |
| 20260901144511 | 68 | 203 | 6.0 | 13.0 | 0.00 | 0.00 | 0.00 | 68 | 1020.6 |
| 20260901144011 | 68 | 206 | 6.0 | 13.0 | 0.00 | 0.00 | 0.00 | 68 | 1020.6 |
| 20260901143012 | 68 | 181 | 8.0 | 15.0 | 0.00 | 0.00 | 0.00 | 66 | 1020.6 |
| 20260901141511 | 69 | 205 | 9.0 | 14.0 | 0.00 | 0.00 | 0.00 | 65 | 1020.6 |
| 20260901140511 | 70 | 204 | 7.0 | 14.0 | 0.00 | 0.00 | 0.00 | 65 | 1020.6 |
| 20260901140011 | 71 | 211 | 7.0 | 12.0 | 0.00 | 0.00 | 0.00 | 65 | 1020.7 |
| 20260901135011 | 71 | 192 | 6.0 | 13.0 | 0.00 | 0.00 | 0.00 | 64 | 1020.6 |
| 20260901134011 | 71 | 187 | 5.0 | 13.0 | 0.00 | 0.00 | 0.00 | 64 | 1020.6 |
| 20260901133511 | 71 | 178 | 7.0 | 13.0 | 0.00 | 0.00 | 0.00 | 63 | 1020.6 |
| 20260901133012 | 72 | 206 | 7.0 | 12.0 | 0.00 | 0.00 | 0.00 | 62 | 1020.7 |
| 20260901132011 | 71 | 188 | 7.0 | 12.0 | 0.00 | 0.00 | 0.00 | 64 | 1020.6 |
| 20260901131511 | 71 | 203 | 7.0 | 12.0 | 0.00 | 0.00 | 0.00 | 63 | 1020.7 |
| 20260901130511 | 72 | 182 | 5.0 | 13.0 | 0.00 | 0.00 | 0.00 | 59 | 1020.7 |
| 20260901130011 | 73 | 198 | 7.0 | 15.0 | 0.00 | 0.00 | 0.00 | 59 | 1020.8 |
| 20260901123511 | 74 | 228 | 5.0 | 10.0 | 0.00 | 0.00 | 0.00 | 55 | 1020.7 |
| 20260901123011 | 74 | 200 | 5.0 | 13.0 | 0.00 | 0.00 | 0.00 | 57 | 1020.7 |
| 20260901122011 | 73 | 209 | 4.0 | 12.0 | 0.00 | 0.00 | 0.00 | 58 | 1020.7 |
| 20260901121510 | 72 | 145 | 6.0 | 12.0 | 0.00 | 0.00 | 0.00 | 56 | 1020.7 |
| 20260901121011 | 72 | 194 | 3.0 | 9.0 | 0.00 | 0.00 | 0.00 | 60 | 1020.8 |
| 20260901120510 | 71 | 211 | 5.0 | 9.0 | 0.00 | 0.00 | 0.00 | 63 | 1020.8 |
| 20260901120011 | 70 | 183 | 3.0 | 7.0 | 0.00 | 0.00 | 0.00 | 64 | 1020.9 |
| 20260901115510 | 70 | 177 | 3.0 | 7.0 | 0.00 | 0.00 | 0.00 | 65 | 1021.0 |
| 20260901114511 | 68 | 197 | 2.0 | 7.0 | 0.00 | 0.00 | 0.00 | 66 | 1021.0 |
| 20260901114011 | 68 | 186 | 2.0 | 6.0 | 0.00 | 0.00 | 0.00 | 65 | 1021.0 |
| 20260901113511 | 68 | 230 | 3.0 | 6.0 | 0.00 | 0.00 | 0.00 | 65 | 1021.0 |
| 20260901112511 | 69 | 208 | 4.0 | 8.0 | 0.00 | 0.00 | 0.00 | 62 | 1021.1 |
| 20260901111510 | 71 | 198 | 3.0 | 8.0 | 0.00 | 0.00 | 0.00 | 57 | 1021.1 |
| 20260901111011 | 71 | 200 | 4.0 | 8.0 | 0.00 | 0.00 | 0.00 | 59 | 1021.1 |
| 20260901110511 | 71 | 214 | 5.0 | 7.0 | 0.00 | 0.00 | 0.00 | 60 | 1021.1 |
| 20260901110011 | 71 | 194 | 3.0 | 6.0 | 0.00 | 0.00 | 0.00 | 61 | 1021.1 |
| 20260901104011 | 71 | 205 | 5.0 | 12.0 | 0.00 | 0.00 | 0.00 | 62 | 1021.3 |
| 20260901101512 | 70 | 213 | 2.0 | 12.0 | 0.00 | 0.00 | 0.00 | 65 | 1021.4 |
| 20260901101010 | 69 | 218 | 3.0 | 12.0 | 0.00 | 0.00 | 0.00 | 67 | 1021.5 |
| 20260901100511 | 69 | 236 | 3.0 | 7.0 | 0.00 | 0.00 | 0.00 | 67 | 1021.5 |
| 20260901100011 | 68 | 227 | 3.0 | 7.0 | 0.00 | 0.00 | 0.00 | 69 | 1021.6 |
| 20260901095511 | 68 | 170 | 3.0 | 8.0 | 0.00 | 0.00 | 0.00 | 69 | 1021.6 |
| 20260901094511 | 67 | 259 | 5.0 | 9.0 | 0.00 | 0.00 | 0.00 | 71 | 1021.7 |
| 20260901094010 | 67 | 220 | 2.0 | 5.0 | 0.00 | 0.00 | 0.00 | 74 | 1021.7 |
| 20260901093511 | 66 | 203 | 2.0 | 6.0 | 0.00 | 0.00 | 0.00 | 73 | 1021.7 |
| 20260901092511 | 66 | 215 | 5.0 | 8.0 | 0.00 | 0.00 | 0.00 | 73 | 1021.8 |
| 20260901091511 | 66 | 214 | 3.0 | 7.0 | 0.00 | 0.00 | 0.00 | 74 | 1021.7 |
| 20260901091011 | 66 | 215 | 3.0 | 7.0 | 0.00 | 0.00 | 0.00 | 74 | 1021.7 |
| 20260901090511 | 65 | 186 | 3.0 | 6.0 | 0.00 | 0.00 | 0.00 | 75 | 1021.7 |
| 20260901085011 | 65 | 208 | 3.0 | 7.0 | 0.00 | 0.00 | 0.00 | 75 | 1021.6 |
| 20260901084511 | 65 | 228 | 3.0 | 7.0 | 0.00 | 0.00 | 0.00 | 76 | 1021.6 |
| 20260901084010 | 65 | 252 | 3.0 | 7.0 | 0.00 | 0.00 | 0.00 | 77 | 1021.6 |
| 20260901083511 | 64 | 219 | 3.0 | 7.0 | 0.00 | 0.00 | 0.00 | 79 | 1021.5 |
| 20260901082011 | 62 | 191 | 2.0 | 3.0 | 0.00 | 0.00 | 0.00 | 82 | 1021.5 |
| 20260901081511 | 61 | 172 | 2.0 | 3.0 | 0.00 | 0.00 | 0.00 | 83 | 1021.5 |
| 20260901080011 | 61 | 201 | 1.0 | 3.0 | 0.00 | 0.00 | 0.00 | 84 | 1021.4 |
| 20260901075511 | 60 | 201 | 1.0 | 3.0 | 0.00 | 0.00 | 0.00 | 85 | 1021.4 |
| 20260901074511 | 59 | 199 | 1.0 | 5.0 | 0.00 | 0.01 | 0.00 | 86 | 1021.4 |
| 20260901074011 | 59 | 179 | 2.0 | 5.0 | 0.00 | 0.01 | 0.00 | 86 | 1021.4 |
| 20260901072010 | 58 | 205 | 2.0 | 3.0 | 0.00 | 0.01 | 0.00 | 89 | 1021.3 |
| 20260901071511 | 58 | 208 | 1.0 | 3.0 | 0.00 | 0.01 | 0.00 | 89 | 1021.3 |
| 20260901071011 | 57 | 202 | 2.0 | 3.0 | 0.00 | 0.01 | 0.00 | 89 | 1021.3 |
| 20260901070510 | 57 | 192 | 2.0 | 3.0 | 0.00 | 0.01 | 0.00 | 90 | 1021.2 |
| 20260901070011 | 57 | 195 | 1.0 | 2.0 | 0.00 | 0.01 | 0.00 | 90 | 1021.2 |
| 20260901065512 | 56 | 195 | 0.0 | 2.0 | 0.00 | 0.01 | 0.00 | 91 | 1021.2 |
| 20260901063012 | 55 | 195 | 0.0 | 0.0 | 0.00 | 0.01 | 0.00 | 91 | 1021.1 |
| 20260901062510 | 55 | 195 | 0.0 | 0.0 | 0.00 | 0.01 | 0.00 | 91 | 1021.0 |
| 20260901060511 | 54 | 195 | 0.0 | 0.0 | 0.00 | 0.01 | 0.00 | 89 | 1020.8 |
| 20260901055011 | 54 | 195 | 0.0 | 0.0 | 0.00 | 0.01 | 0.00 | 88 | 1020.6 |
| 20260901053011 | 55 | 195 | 0.0 | 0.0 | 0.00 | 0.01 | 0.00 | 87 | 1020.5 |
| 20260901052511 | 55 | 195 | 0.0 | 0.0 | 0.00 | 0.01 | 0.00 | 87 | 1020.5 |
| 20260901051511 | 55 | 195 | 0.0 | 0.0 | 0.00 | 0.01 | 0.00 | 87 | 1020.5 |
| 20260901050511 | 56 | 195 | 0.0 | 0.0 | 0.00 | 0.01 | 0.00 | 87 | 1020.4 |
| 20260901050010 | 56 | 195 | 0.0 | 0.0 | 0.00 | 0.01 | 0.00 | 87 | 1020.3 |
| 20260901045511 | 56 | 195 | 0.0 | 0.0 | 0.00 | 0.01 | 0.00 | 87 | 1020.3 |
| 20260901045011 | 56 | 195 | 0.0 | 0.0 | 0.00 | 0.01 | 0.00 | 88 | 1020.3 |
| 20260901044511 | 56 | 195 | 0.0 | 0.0 | 0.00 | 0.01 | 0.00 | 88 | 1020.3 |
| 20260901044011 | 56 | 195 | 0.0 | 0.0 | 0.00 | 0.01 | 0.00 | 88 | 1020.3 |
| 20260901042011 | 56 | 195 | 0.0 | 2.0 | 0.00 | 0.01 | 0.00 | 88 | 1020.3 |
| 20260901041511 | 56 | 195 | 0.0 | 1.0 | 0.00 | 0.01 | 0.00 | 88 | 1020.3 |
| 20260901041011 | 56 | 195 | 0.0 | 1.0 | 0.00 | 0.01 | 0.00 | 88 | 1020.3 |
| 20260901035510 | 56 | 195 | 0.0 | 2.0 | 0.00 | 0.01 | 0.00 | 88 | 1020.2 |
| 20260901034011 | 56 | 213 | 1.0 | 3.0 | 0.00 | 0.01 | 0.00 | 89 | 1020.3 |
| 20260901033511 | 56 | 200 | 1.0 | 3.0 | 0.00 | 0.01 | 0.00 | 89 | 1020.3 |
| 20260901033011 | 56 | 199 | 2.0 | 3.0 | 0.00 | 0.01 | 0.00 | 89 | 1020.3 |
| 20260901031511 | 55 | 193 | 1.0 | 2.0 | 0.00 | 0.01 | 0.00 | 89 | 1020.3 |
| 20260901031011 | 55 | 193 | 0.0 | 0.0 | 0.00 | 0.01 | 0.00 | 89 | 1020.2 |
| 20260901025511 | 55 | 193 | 0.0 | 0.0 | 0.00 | 0.01 | 0.00 | 89 | 1020.3 |
| 20260901025011 | 55 | 193 | 0.0 | 0.0 | 0.00 | 0.01 | 0.00 | 89 | 1020.3 |
| 20260901024011 | 55 | 193 | 0.0 | 0.0 | 0.00 | 0.01 | 0.00 | 89 | 1020.4 |
| 20260901023011 | 55 | 193 | 0.0 | 1.0 | 0.00 | 0.01 | 0.00 | 89 | 1020.4 |
| 20260901020511 | 54 | 193 | 0.0 | 1.0 | 0.00 | 0.01 | 0.00 | 88 | 1020.4 |
| 20260901014511 | 55 | 193 | 1.0 | 2.0 | 0.00 | 0.01 | 0.00 | 86 | 1020.4 |
| 20260901014010 | 55 | 193 | 0.0 | 2.0 | 0.00 | 0.01 | 0.00 | 86 | 1020.4 |
| 20260901013511 | 55 | 193 | 1.0 | 2.0 | 0.00 | 0.01 | 0.00 | 86 | 1020.3 |
| 20260901013011 | 55 | 193 | 0.0 | 1.0 | 0.00 | 0.01 | 0.00 | 86 | 1020.4 |
| 20260901012511 | 55 | 193 | 0.0 | 2.0 | 0.00 | 0.01 | 0.00 | 86 | 1020.3 |
| 20260901011011 | 55 | 193 | 0.0 | 0.0 | 0.00 | 0.01 | 0.00 | 85 | 1020.1 |
| 20260901010510 | 55 | 193 | 0.0 | 2.0 | 0.00 | 0.01 | 0.00 | 85 | 1020.2 |
| 20260901005011 | 56 | 193 | 0.0 | 2.0 | 0.00 | 0.01 | 0.00 | 85 | 1020.3 |
| 20260901003011 | 56 | 193 | 0.0 | 2.0 | 0.00 | 0.01 | 0.00 | 85 | 1020.2 |
| 20260901001512 | 56 | 204 | 1.0 | 3.0 | 0.00 | 0.01 | 0.00 | 84 | 1020.2 |
| 20260901000011 | 56 | 198 | 1.0 | 3.0 | 0.00 | 0.01 | 0.00 | 84 | 1020.2 |
| 20260831235011 | 56 | 212 | 2.0 | 3.0 | 0.00 | 0.01 | 0.00 | 83 | 1020.3 |
| 20260831234511 | 56 | 216 | 1.0 | 3.0 | 0.00 | 0.01 | 0.00 | 83 | 1020.3 |
| 20260831234011 | 57 | 217 | 1.0 | 3.0 | 0.00 | 0.01 | 0.00 | 83 | 1020.3 |
| 20260831233011 | 57 | 226 | 2.0 | 3.0 | 0.00 | 0.01 | 0.00 | 83 | 1020.2 |
| 20260831232511 | 57 | 216 | 1.0 | 3.0 | 0.00 | 0.01 | 0.00 | 83 | 1020.2 |
| 20260831231511 | 57 | 213 | 1.0 | 3.0 | 0.00 | 0.01 | 0.00 | 83 | 1020.2 |
| 20260831225511 | 57 | 216 | 1.0 | 3.0 | 0.00 | 0.01 | 0.01 | 83 | 1020.1 |